Погода в Смидовиче

Погода в Смидовиче : погода сейчас, прогноз погоды и архив. Всё, что Вы хотите узнать о погоде в Смидовиче!

Поиск расширенной информации на нашем сайте:

Другие новости

Новости СМИ2

Главная страница сайта

Новости сайта

02.10.2013

Напоминаем, что на нашем новом сайте вы можете получить высокодетализированные прогнозы погоды по пунктам России, СНГ и мира (включающие важные для авиации метеовеличины, такие как направление и скорость ветра, видимость, явления погоды, количество и форма облачности, нижняя и верхняя граница облачности), а также ознакомиться с разнообразными материалами по авиационной метеорологии и подборкой полезных ссылок на эту тему.

Сайт Метеоцентр.Азия посвящён разработке технологий оптимизации авиаметеорологического обслуживания, включая проектирование и перспективное создание нескольких автоматизированных авиаметеорологических систем:
- система выпуска высокодетальных прогностических карт явлений погоды для нижнего воздушного пространства по России и ближнему зарубежью;
- система верификации прогнозов TAF (выпускаемых синоптиками официальных АМСГ РФ и ближнего зарубежья) и AUTOTAF (выпускаемых сайтом Метеоцентр.Азия) - выявление ошибок, онлайн-сопоставление с фактической погодой METAR, автоматическое внесение коррективов в прогнозы при резком отклонении фактической погоды от прогноза, подсчёт оправдываемости прогнозов по элементам и в целом;
- система обработки, анализа и отображения авиаметеорологической информации для применения провайдерами метеорологической информации.

Рекомендуем: Заказать пиццу в лазаревском дешево доставка sakuracafe.ru.

Погода в Смидовиче - сегодня

Время (UTC), дата Ветер
(°,м/с) 
Видим.   Явления Облачность Т
(°С)
Тd
(°С)
f(%) Тe
(°С)
Pmin
(гПа)
dP
(гПа)
Po
(мм)
O2
(г/м3)
Тmin Tmax R s Состояние
почвы
12 25.02.17 330 (СЗ) 20000 м    ясно 
-17 -25.5 48 -17  1013.4  2.3  755  326           
15 25.02.17 340 (С) 20000 м    ясно 
-19.2 -21.6 81 -22  1015.6  2.2  757  330           
18 25.02.17 330 (СЗ) 20000 м    ясно 
-20.4 -22.7 82 -23  1017.5  1.8  758  332           
21 25.02.17 270 (З) 20000 м    ясно 
-29.7 -33 73 -33  1019.8  2.1  760  345  -29.7      29  равномерный
сухой снег
100% 
00 26.02.17 260 (З) 20000 м    4/0 верхняя 
[Ci fib]
-19.1 -25.3 58 -23  1021.7  2.2  761  332  -30.6         
03 26.02.17 210 (ЮЗ) 20000 м    ясно 
-14.2 -24 43 -18  1022.3  0.7  762  325           
06 26.02.17 190 (Ю) 20000 м    ясно 
-11.7 -22.1 42 -15  1022  -0.3  761  322           
09 26.02.17 210 (ЮЗ) 20000 м    ясно 
-13.5 -21.8 50 -17  1022.3  0.3  762  324    -11.6       
12 26.02.17 210 (ЮЗ) 20000 м    ясно 
-19.6 -24.7 64 -25  1023.7  1.2  763  333           
15 26.02.17 220 (ЮЗ) 20000 м    ясно 
-21.5 -25.4 71 -26  1024.1  0.3  763  335           
18 26.02.17 220 (ЮЗ) 20000 м    ясно 
-22 -25.8 71 -27  1024.2  0.2  763  336           
21 26.02.17 210 (ЮЗ) 20000 м    ясно 
-22.6 -26.2 72 -26  1024.4  0.1  763  337  -23.8      29  равномерный
сухой снег
100% 
00 27.02.17 160 (Ю) 20000 м    ясно 
-16.8 -23.6 56 -19  1024.2  763  329           
03 27.02.17 170 (Ю) 20000 м    10/0 верхняя 
[Cs]
-10.6 -19.5 48 -12  1023.3  -0.8  762  321           
06 27.02.17 140 (ЮВ) 20000 м    10/0 верхняя 
[Cs]
-6.7 -15.4 50 -8  1022.1  -1.1  762  316           
09 27.02.17 100 (В) 20000 м    10/0 средняя, верхняя 
[Ac lent|Ci fib]
-8.4 -14.1 63 -10  1021.2  -0.9  761  318    -6.1       
12 27.02.17 050 (СВ) 20000 м    6/0 верхняя 
[Ci fib]
-10.8 -15.8 67 -13  1020.4  -0.8  760  320           
15 27.02.17 060 (СВ) 20000 м    10/0 средняя, верхняя 
[Ac lent|Ci fib]
-10.9 -16 66 -13  1019.1  -1.3  759  320           
18 27.02.17 050 (СВ) 20000 м    10/0 средняя 
[Ac lent]
-10.1 -15.4 65 -12  1017.7  -1.4  758  319           
21 27.02.17 040 (СВ) 20000 м    10/0 средняя 
[Ac lent]
-10.6 -15.7 66 -12  1016.9  -0.8  758  319  -11.8      29  равномерный
сухой снег
100% 
00 28.02.17 020 (С) 20000 м    10/8 600 м кучево-дожд., средняя 
[Cb cap|Ac As]
-8.7 -14.2 64 -10  1016.6  -0.3  758  317           
03 28.02.17 030 (СВ) 4000 м  слаб. ливневой снег  10/10 600 м кучево-дожд. 
[Cb cap]
-5.7 -9.4 75 -7  1015.6  -0.9  757  312           
06 28.02.17 020 (С) 1000 м  ливневой снег  10/10 600 м кучево-дожд. 
[Cb cap]
-3.1 -5.6 83 -4  1014.1  -1.4  756  309           
09 28.02.17 020 (С) 4000 м  слаб. ливневой снег  10/10 600 м кучево-дожд. 
[Cb cap]
-3.7 -5.3 89 -3  1014.2  0.1  756  309    -3.1     
12 28.02.17 350 (С) 4000 м  слаб. ливневой снег  10/6 600 м кучево-дожд., средняя, верхняя 
[Cb cap|Ac lent|Ci]
-7.2 -8.6 90 -7  1014.5  0.2  756  314           
Время (UTC), дата Ветер
(°,м/с) 
Видим.   Явления Облачность Т
(°С)
Тd
(°С)
f(%) Тe
(°С)
Pmin
(гПа)
dP
(гПа)
Po
(мм)
O2
(г/м3)
Тmin Tmax R s Состояние
почвы

Для получения пояснительной информации подведите курсор к названию столбца.

ПОГОДА в Смидовиче - архив

Всё, что Вы хотите узнать о погоде в Смидовиче - удобно и подробно!

Выберите нужную дату (начиная с 1 января 2015* года) и нажмите кнопку "Найти".
Будут отображены архивные сводки погоды по пункту Смидович, начиная с указанной даты.


Отображать данные в формате CSV (для использования в таблицах Excel)


Внимание! Наш архив погоды предназначен исключительно для личного некоммерческого использования в познавательных целях. Если Вам необходимы официальные справки о состоянии погоды (для производственных, юридических, коммерческих и т.п. целей), обращайтесь в органы Росгидромета.

*Примечание: данная дата относится к архиву по метеостанциям СССР (Россия, СНГ, Балтия).
Архив по метеостанциям Зарубежной Европы и Азии (кроме Китая) хранится 10 дней, по другим регионам земного шара (Китай, Африка, Америка, Австралия, Океания) - 1 день.

Смидович - район местоположения метеостанции


Название, широта, долгота, высота метеостанции:
Смидович 48.6°ш. 133.8°д. 52 м над ур. моря [Российская Федерация]

Дополнительная информация

В oтличие oт бoльшинства пoгoдных сайтoв мы публикуем пoдрoбную метеoинфoрмацию в детальнoм прoфессиoнальнoм фoрмате.

Характеристики температуры и влажнoсти вoздуха измеряются на высoте 2 м в тени вдали oт зданий и деревьев.
Скoрoсть ветра измеряется на высoте 10 м (на урoвне рoста челoвека скoрoсть ветра ниже в 1.5-2 раза). Если метеoстанция нахoдится в гoрoде или в лесу, тo скoрoсть ветра занижена на 2-4 м/с пo сравнению с oткрытым местoм. Скoрoсть ветра над акватoриями крупных рек и oзёр, а также на вершинах хoлмoв на 2-5 м/с выше, чем в oбычных услoвиях.
Атмoсфернoе давление в разных тoчках местнoсти мoжет значительнo oтличаться oт давления на метеoстанции, в зависимoсти oт услoвий рельефа (при пoдъёме на 10 м давление пoнижается примернo на 1 мм рт.ст.).